Weather History for La Crosse, WI

Change the Weather History Date:

Friday, December 9, 2011

  Actual Average Record
Temperature  
Mean Temperature 13 °F 24 °F  
Max Temperature 19 °F 31 °F 54 °F (1946)
Min Temperature 6 °F 16 °F -24 °F (1876)
Degree Days  
Heating Degree Days 52 41  
Month to date heating degree days 365 357  
Since 1 July heating degree days 1666 1857  
Cooling Degree Days 0 0  
Month to date cooling degree days 0 0  
Year to date cooling degree days 922 782  
Moisture  
Dew Point 2 °F    
Average Humidity 65    
Maximum Humidity 73    
Minimum Humidity 56    
Precipitation  
Precipitation 0.00 in 0.05 in 0.72 in (2009)
Month to date precipitation 0.75 0.48  
Year to date precipitation 34.44 32.18  
Snow  
Snow 0.00 in 0.40 in 8.00 in (2009)
Month to date snowfall 1.6 3.4  
Since 1 July snowfall 2.3 7.7  
Snow Depth 1.00 in    
Sea Level Pressure  
Sea Level Pressure 30.40 in    
Wind  
Wind Speed 8 mph (West)    
Max Wind Speed 15 mph    
Max Gust Speed 18 mph    
Visibility 10 miles    
Events      
T = Trace of Precipitation, MM = Missing Value Source: NWS Daily Summary

Daily Weather History Graph

Daily Weather History Graph

Search for Another Location

Airport:

Trip Planner

Search our weather history database for the weather conditions in past years. The results will help you decide how hot, cold, wet, or windy it might be!

Date:

Astronomy

Dec. 09, 2011 Rise Set
Actual Time 7:27 AM CST 4:27 PM CST
Civil Twilight 6:54 AM CST 5:00 PM CST
Nautical Twilight 6:18 AM CST 5:36 PM CST
Astronomical Twilight 5:43 AM CST 6:11 PM CST
Moon 3:50 PM CST (12/9) 6:35 AM CST (12/9)
Length of Visible Light 10h 05m
Length of Day
9h 00m
Waxing Gibbous, 99% of the Moon is Illuminated
Dec 9
Waxing Gibbous
Dec 10
Full
Dec 17
Last Quarter
Dec 24
New
Jan 1
First Quarter

Hourly Weather History & Observations

Time (CST) Temp. Windchill Dew Point Humidity Pressure Visibility Wind Dir Wind Speed Gust Speed Precip Events Conditions
12:53 AM 17.1 °F 5.0 °F 6.1 °F 62% 30.25 in 10.0 mi West 10.4 mph - N/A   Clear
1:53 AM 16.0 °F 2.9 °F 5.0 °F 62% 30.27 in 10.0 mi West 11.5 mph - N/A   Clear
2:53 AM 14.0 °F 1.2 °F 3.9 °F 64% 30.28 in 10.0 mi West 10.4 mph - N/A   Clear
3:53 AM 12.9 °F -0.2 °F 3.0 °F 65% 30.30 in 10.0 mi West 10.4 mph - N/A   Clear
4:53 AM 12.0 °F -1.3 °F 3.0 °F 67% 30.31 in 10.0 mi West 10.4 mph - N/A   Clear
5:53 AM 10.0 °F 0.4 °F 1.9 °F 70% 30.32 in 10.0 mi West 5.8 mph - N/A   Clear
6:53 AM 9.0 °F -2.2 °F 1.0 °F 70% 30.34 in 10.0 mi West 6.9 mph - N/A   Clear
7:53 AM 8.1 °F -3.2 °F 1.0 °F 73% 30.36 in 10.0 mi West 6.9 mph - N/A   Clear
8:53 AM 10.0 °F 0.4 °F 1.9 °F 70% 30.38 in 10.0 mi West 5.8 mph - N/A   Clear
9:53 AM 12.0 °F 2.7 °F 3.0 °F 67% 30.40 in 10.0 mi West 5.8 mph - N/A   Clear
10:53 AM 14.0 °F 6.5 °F 3.0 °F 62% 30.41 in 10.0 mi West 4.6 mph - N/A   Clear
11:53 AM 16.0 °F 5.3 °F 5.0 °F 62% 30.40 in 10.0 mi West 8.1 mph - N/A   Clear
12:53 PM 16.0 °F 2.3 °F 5.0 °F 62% 30.40 in 10.0 mi West 12.7 mph - N/A   Clear
1:53 PM 17.1 °F 5.0 °F 5.0 °F 59% 30.40 in 10.0 mi West 10.4 mph - N/A   Clear
2:53 PM 16.0 °F 2.9 °F 3.0 °F 57% 30.41 in 10.0 mi West 11.5 mph - N/A   Clear
3:53 PM 16.0 °F 3.6 °F 3.0 °F 57% 30.42 in 10.0 mi West 10.4 mph - N/A   Clear
4:53 PM 14.0 °F 2.0 °F 3.0 °F 62% 30.43 in 10.0 mi WSW 9.2 mph - N/A   Clear
5:53 PM 12.0 °F 4.1 °F 1.9 °F 64% 30.46 in 10.0 mi West 4.6 mph - N/A   Clear
6:53 PM 10.9 °F -0.8 °F 1.0 °F 64% 30.48 in 10.0 mi West 8.1 mph - N/A   Clear
7:53 PM 8.1 °F 1.4 °F -0.0 °F 70% 30.49 in 10.0 mi Variable 3.5 mph - N/A   Clear
8:53 PM 9.0 °F 2.4 °F -0.0 °F 67% 30.49 in 10.0 mi West 3.5 mph - N/A   Clear
9:53 PM 9.0 °F 0.6 °F -0.0 °F 67% 30.50 in 10.0 mi SSW 4.6 mph - N/A   Clear
10:53 PM 8.1 °F -0.5 °F -0.9 °F 67% 30.51 in 10.0 mi South 4.6 mph - N/A   Clear
11:53 PM 8.1 °F -2.0 °F -0.0 °F 70% 30.50 in 10.0 mi South 5.8 mph - N/A   Clear